User: anonymous   Login
Location: Bothwell
(42.3833°S, 147.0000°E)
Time: 04:57:09
(UTC+10:00)
Language:

BEESAT 3 - Orbit

View from above orbital plane
View from above orbital plane
View from above satellite
View from above satellite

Ground track
Ground track

The orbit data is extracted from the following two-line orbital elements,

1 39134U 13015E   22266.89375846  .00016127  00000-0  53354-3 0  9998
2 39134  64.8595  98.2533 0035206 263.9841  95.7279 15.30900152521911
Epoch (UTC): 23 September 2022 21:27:00
Eccentricity: 0.0035206
inclination: 64.8595°
perigee height: 449 km
apogee height: 497 km
right ascension of ascending node: 98.2533°
argument of perigee: 263.9841°
revolutions per day: 15.30900152
mean anomaly at epoch: 95.7279°
orbit number at epoch: 52191

The dashed part of the orbit path shows where the satellite is in the earth's shadow,  

DLR